TimeEST,TemperatureF,Dew PointF,Humidity,Sea Level PressureIn,VisibilityMPH,Wind Direction,Wind SpeedMPH,Gust SpeedMPH,PrecipitationIn,Events,Conditions,WindDirDegrees,DateUTC
12:48 AM,6.8,6.8,100,-9999,0.0,WNW,78.3,84.0,N/A,Fog-Snow,Light Snow,290,2013-01-05 05:48:00
1:51 AM,5.0,5.0,100,-9999,0.0,WNW,74.8,84.0,N/A,Fog-Snow,Light Snow,290,2013-01-05 06:51:00
2:54 AM,6.8,6.8,100,-9999,0.0,WNW,82.9,-,N/A,Fog-Snow,Light Snow,290,2013-01-05 07:54:00
3:55 AM,6.8,6.8,100,-9999,0.0,WNW,87.5,100.1,N/A,Fog-Snow,Light Snow,290,2013-01-05 08:55:00
4:59 AM,6.8,6.8,100,-9999,0.0,WNW,80.6,102.4,N/A,Fog-Snow,Blowing Snow,290,2013-01-05 09:59:00
5:57 AM,6.8,6.8,100,-9999,0.0,WNW,80.6,107.0,N/A,Fog-Snow,Blowing Snow,300,2013-01-05 10:57:00
6:48 AM,3.2,3.2,100,-9999,0.0,WNW,90.9,104.7,N/A,Fog-Snow,Blowing Snow,300,2013-01-05 11:48:00
7:53 AM,1.4,1.4,100,-9999,0.0,WNW,85.2,88.6,N/A,Fog-Snow,Blowing Snow,300,2013-01-05 12:53:00
8:56 AM,1.4,1.4,100,-9999,0.0,NW,81.7,94.4,N/A,Fog-Snow,Blowing Snow,310,2013-01-05 13:56:00
9:53 AM,1.4,1.4,100,-9999,0.0,WNW,82.9,94.4,N/A,Fog-Snow,Blowing Snow,300,2013-01-05 14:53:00
10:55 AM,-0.4,-0.4,100,-9999,0.0,WNW,77.1,87.5,N/A,Fog-Snow,Blowing Snow,300,2013-01-05 15:55:00
11:50 AM,-0.4,-0.4,100,-9999,0.1,NW,70.2,-,N/A,Fog-Snow,Light Snow Showers,310,2013-01-05 16:50:00
12:50 PM,-0.4,-0.4,100,-9999,0.0,WNW,78.3,81.7,N/A,Fog-Snow,Light Snow Showers,300,2013-01-05 17:50:00
1:49 PM,-2.2,-2.2,100,-9999,0.1,WNW,58.7,71.3,N/A,Fog-Snow,Light Snow Showers,290,2013-01-05 18:49:00
2:52 PM,-2.2,-9.4,71,-9999,0.1,NW,61.0,66.7,N/A,Fog-Snow,Blowing Snow,310,2013-01-05 19:52:00
3:56 PM,-2.2,-9.4,71,-9999,75.0,NW,62.1,-,N/A,Snow,Blowing Snow,310,2013-01-05 20:56:00
4:52 PM,-0.4,-11.2,60,-9999,75.0,NW,61.0,-,N/A,,Scattered Clouds,310,2013-01-05 21:52:00
5:55 PM,1.4,-13.0,51,-9999,100.0,NW,56.4,-,N/A,,Scattered Clouds,310,2013-01-05 22:55:00
6:52 PM,3.2,-11.2,51,-9999,100.0,NW,49.5,-,N/A,,Mostly Cloudy,310,2013-01-05 23:52:00
8:58 PM,6.8,-14.8,37,-9999,120.0,WNW,33.4,-,N/A,,Mostly Cloudy,290,2013-01-06 01:58:00
9:55 PM,6.8,-14.8,37,-9999,120.0,WNW,36.8,-,N/A,,Overcast,290,2013-01-06 02:55:00
10:57 PM,10.4,-13.0,34,-9999,120.0,West,35.7,-,N/A,,Overcast,280,2013-01-06 03:57:00
11:57 PM,10.4,-14.8,31,-9999,120.0,West,33.4,-,N/A,,Overcast,270,2013-01-06 04:57:00